Year,Month,Day,Hour,Minute,Value (Times are PST for temperature in C)
2020,08,16,00,00,17.30
2020,08,16,00,01,17.30
2020,08,16,00,02,17.30
2020,08,16,00,03,17.30
2020,08,16,00,04,17.30
2020,08,16,00,05,17.30
2020,08,16,00,06,17.30
2020,08,16,00,07,17.30
2020,08,16,00,08,17.30
2020,08,16,00,09,17.30
2020,08,16,00,10,17.40
2020,08,16,00,11,17.40
2020,08,16,00,12,17.50
2020,08,16,00,13,17.50
2020,08,16,00,14,17.50
2020,08,16,00,15,17.50
2020,08,16,00,16,17.50
2020,08,16,00,17,17.60
2020,08,16,00,18,17.60
2020,08,16,00,19,17.60
2020,08,16,00,20,17.70
2020,08,16,00,21,17.70
2020,08,16,00,22,17.70
2020,08,16,00,23,17.70
2020,08,16,00,24,17.70
2020,08,16,00,25,17.70
2020,08,16,00,26,17.70
2020,08,16,00,27,17.70
2020,08,16,00,28,17.70
2020,08,16,00,29,17.70
2020,08,16,00,30,17.70
2020,08,16,00,31,17.70
2020,08,16,00,32,17.70
2020,08,16,00,33,17.80
2020,08,16,00,34,17.80
2020,08,16,00,35,17.80
2020,08,16,00,36,17.80
2020,08,16,00,37,17.80
2020,08,16,00,38,17.70
2020,08,16,00,39,17.70
2020,08,16,00,40,17.70
2020,08,16,00,41,17.70
2020,08,16,00,42,17.60
2020,08,16,00,43,17.60
2020,08,16,00,44,17.60
2020,08,16,00,45,17.50
2020,08,16,00,46,17.50
2020,08,16,00,47,17.50
2020,08,16,00,48,17.50
2020,08,16,00,49,17.50
2020,08,16,00,50,17.50
2020,08,16,00,51,17.50
2020,08,16,00,52,17.50
2020,08,16,00,53,17.50
2020,08,16,00,54,17.50
2020,08,16,00,55,17.60
2020,08,16,00,56,17.60
2020,08,16,00,57,17.60
2020,08,16,00,58,17.60
2020,08,16,00,59,17.70
2020,08,16,01,00,17.70
2020,08,16,01,01,17.70
2020,08,16,01,02,17.70
2020,08,16,01,03,17.70
2020,08,16,01,04,17.70
2020,08,16,01,05,17.70
2020,08,16,01,06,17.70
2020,08,16,01,07,17.70
2020,08,16,01,08,17.70
2020,08,16,01,09,17.70
2020,08,16,01,10,17.70
2020,08,16,01,11,17.70
2020,08,16,01,12,17.70
2020,08,16,01,13,17.70
2020,08,16,01,14,17.70
2020,08,16,01,15,17.70
2020,08,16,01,16,17.70
2020,08,16,01,17,17.70
2020,08,16,01,18,17.70
2020,08,16,01,19,17.70
2020,08,16,01,20,17.60
2020,08,16,01,21,17.60
2020,08,16,01,22,17.60
2020,08,16,01,23,17.60
2020,08,16,01,24,17.50
2020,08,16,01,25,17.50
2020,08,16,01,26,17.50
2020,08,16,01,27,17.40
2020,08,16,01,28,17.40
2020,08,16,01,29,17.40
2020,08,16,01,30,17.30
2020,08,16,01,31,17.30
2020,08,16,01,32,17.30
2020,08,16,01,33,17.30
2020,08,16,01,34,17.30
2020,08,16,01,35,17.30
2020,08,16,01,36,17.30
2020,08,16,01,37,17.30
2020,08,16,01,38,17.20
2020,08,16,01,39,17.20
2020,08,16,01,40,17.20
2020,08,16,01,41,17.20
2020,08,16,01,42,17.10
2020,08,16,01,43,17.10
2020,08,16,01,44,17.10
2020,08,16,01,45,17.10
2020,08,16,01,46,17.10
2020,08,16,01,47,17.10
2020,08,16,01,48,17.10
2020,08,16,01,49,17.10
2020,08,16,01,50,17.10
2020,08,16,01,51,17.00
2020,08,16,01,52,17.00
2020,08,16,01,53,17.00
2020,08,16,01,54,17.00
2020,08,16,01,55,17.00
2020,08,16,01,56,17.00
2020,08,16,01,57,17.00
2020,08,16,01,58,17.00
2020,08,16,01,59,17.00
2020,08,16,02,00,17.00
2020,08,16,02,01,17.00
2020,08,16,02,02,17.00
2020,08,16,02,03,17.00
2020,08,16,02,04,16.90
2020,08,16,02,05,16.90
2020,08,16,02,06,16.90
2020,08,16,02,07,16.90
2020,08,16,02,08,16.90
2020,08,16,02,09,16.80
2020,08,16,02,10,16.80
2020,08,16,02,11,16.80
2020,08,16,02,12,16.80
2020,08,16,02,13,16.80
2020,08,16,02,14,16.80
2020,08,16,02,15,16.80
2020,08,16,02,16,16.80
2020,08,16,02,17,16.80
2020,08,16,02,18,16.80
2020,08,16,02,19,16.80
2020,08,16,02,20,16.80
2020,08,16,02,21,16.80
2020,08,16,02,22,16.80
2020,08,16,02,23,16.80
2020,08,16,02,24,16.80
2020,08,16,02,25,16.80
2020,08,16,02,26,16.80
2020,08,16,02,27,16.80
2020,08,16,02,28,16.80
2020,08,16,02,29,16.80
2020,08,16,02,30,16.70
2020,08,16,02,31,16.70
2020,08,16,02,32,16.70
2020,08,16,02,33,16.70
2020,08,16,02,34,16.70
2020,08,16,02,35,16.80
2020,08,16,02,36,16.80
2020,08,16,02,37,16.80
2020,08,16,02,38,16.70
2020,08,16,02,39,16.70
2020,08,16,02,40,16.70
2020,08,16,02,41,16.70
2020,08,16,02,42,16.70
2020,08,16,02,43,16.70
2020,08,16,02,44,16.70
2020,08,16,02,45,16.70
2020,08,16,02,46,16.70
2020,08,16,02,47,16.70
2020,08,16,02,48,16.70
2020,08,16,02,49,16.70
2020,08,16,02,50,16.70
2020,08,16,02,51,16.70
2020,08,16,02,52,16.70
2020,08,16,02,53,16.70
2020,08,16,02,54,16.70
2020,08,16,02,55,16.70
2020,08,16,02,56,16.70
2020,08,16,02,57,16.70
2020,08,16,02,58,16.70
2020,08,16,02,59,16.70
2020,08,16,03,00,16.70
2020,08,16,03,01,16.70
2020,08,16,03,02,16.70
2020,08,16,03,03,16.70
2020,08,16,03,04,16.60
2020,08,16,03,05,16.60
2020,08,16,03,06,16.60
2020,08,16,03,07,16.60
2020,08,16,03,08,16.50
2020,08,16,03,09,16.40
2020,08,16,03,10,16.40
2020,08,16,03,11,16.40
2020,08,16,03,12,16.40
2020,08,16,03,13,16.40
2020,08,16,03,14,16.40
2020,08,16,03,15,16.40
2020,08,16,03,16,16.40
2020,08,16,03,17,16.40
2020,08,16,03,18,16.40
2020,08,16,03,19,16.40
2020,08,16,03,20,16.40
2020,08,16,03,21,16.40
2020,08,16,03,22,16.40
2020,08,16,03,23,16.40
2020,08,16,03,24,16.40
2020,08,16,03,25,16.40
2020,08,16,03,26,16.40
2020,08,16,03,27,16.30
2020,08,16,03,28,16.30
2020,08,16,03,29,16.30
2020,08,16,03,30,16.20
2020,08,16,03,31,16.20
2020,08,16,03,32,16.20
2020,08,16,03,33,16.20
2020,08,16,03,34,16.10
2020,08,16,03,35,16.10
2020,08,16,03,36,16.10
2020,08,16,03,37,16.10
2020,08,16,03,38,16.10
2020,08,16,03,39,16.10
2020,08,16,03,40,16.10
2020,08,16,03,41,16.10
2020,08,16,03,42,16.10
2020,08,16,03,43,16.10
2020,08,16,03,44,16.10
2020,08,16,03,45,16.10
2020,08,16,03,46,16.10
2020,08,16,03,47,16.00
2020,08,16,03,48,15.90
2020,08,16,03,49,15.90
2020,08,16,03,50,15.90
2020,08,16,03,51,15.90
2020,08,16,03,52,15.90
2020,08,16,03,53,15.80
2020,08,16,03,54,15.80
2020,08,16,03,55,15.80
2020,08,16,03,56,15.80
2020,08,16,03,57,15.80
2020,08,16,03,58,15.80
2020,08,16,03,59,15.80
2020,08,16,04,00,15.80
2020,08,16,04,01,15.80
2020,08,16,04,02,15.90
2020,08,16,04,03,15.90
2020,08,16,04,04,15.90
2020,08,16,04,05,15.90
2020,08,16,04,06,15.90
2020,08,16,04,07,15.90
2020,08,16,04,08,15.90
2020,08,16,04,09,15.90
2020,08,16,04,10,15.90
2020,08,16,04,11,15.90
2020,08,16,04,12,15.80
2020,08,16,04,13,15.80
2020,08,16,04,14,15.80
2020,08,16,04,15,15.80
2020,08,16,04,16,15.80
2020,08,16,04,17,15.70
2020,08,16,04,18,15.70
2020,08,16,04,19,15.70
2020,08,16,04,20,15.70
2020,08,16,04,21,15.70
2020,08,16,04,22,15.70
2020,08,16,04,23,15.70
2020,08,16,04,24,15.70
2020,08,16,04,25,15.60
2020,08,16,04,26,15.60
2020,08,16,04,27,15.60
2020,08,16,04,28,15.60
2020,08,16,04,29,15.60
2020,08,16,04,30,15.50
2020,08,16,04,31,15.50
2020,08,16,04,32,15.50
2020,08,16,04,33,15.50
2020,08,16,04,34,15.40
2020,08,16,04,35,15.40
2020,08,16,04,36,15.40
2020,08,16,04,37,15.40
2020,08,16,04,38,15.40
2020,08,16,04,39,15.40
2020,08,16,04,40,15.30
2020,08,16,04,41,15.30
2020,08,16,04,42,15.30
2020,08,16,04,43,15.30
2020,08,16,04,44,15.30
2020,08,16,04,45,15.30
2020,08,16,04,46,15.30
2020,08,16,04,47,15.30
2020,08,16,04,48,15.30
2020,08,16,04,49,15.30
2020,08,16,04,50,15.30
2020,08,16,04,51,15.30
2020,08,16,04,52,15.30
2020,08,16,04,53,15.30
2020,08,16,04,54,15.30
2020,08,16,04,55,15.30
2020,08,16,04,56,15.20
2020,08,16,04,57,15.20
2020,08,16,04,58,15.20
2020,08,16,04,59,15.20
2020,08,16,05,00,15.20
2020,08,16,05,01,15.10
2020,08,16,05,02,15.10
2020,08,16,05,03,15.10
2020,08,16,05,04,15.10
2020,08,16,05,05,15.10
2020,08,16,05,06,15.10
2020,08,16,05,07,15.10
2020,08,16,05,08,15.10
2020,08,16,05,09,15.00
2020,08,16,05,10,15.00
2020,08,16,05,11,15.00
2020,08,16,05,12,14.90
2020,08,16,05,13,14.90
2020,08,16,05,14,14.90
2020,08,16,05,15,15.00
2020,08,16,05,16,15.00
2020,08,16,05,17,15.00
2020,08,16,05,18,15.00
2020,08,16,05,19,15.00
2020,08,16,05,20,15.00
2020,08,16,05,21,15.00
2020,08,16,05,22,15.00
2020,08,16,05,23,15.00
2020,08,16,05,24,15.00
2020,08,16,05,25,15.00
2020,08,16,05,26,15.00
2020,08,16,05,27,15.00
2020,08,16,05,28,15.00
2020,08,16,05,29,15.10
2020,08,16,05,30,15.10
2020,08,16,05,31,15.10
2020,08,16,05,32,15.10
2020,08,16,05,33,15.10
2020,08,16,05,34,15.10
2020,08,16,05,35,15.10
2020,08,16,05,36,15.10
2020,08,16,05,37,15.10
2020,08,16,05,38,15.10
2020,08,16,05,39,15.10
2020,08,16,05,40,15.10
2020,08,16,05,41,15.10
2020,08,16,05,42,15.10
2020,08,16,05,43,15.10
2020,08,16,05,44,15.10
2020,08,16,05,45,15.20
2020,08,16,05,46,15.20
2020,08,16,05,47,15.20
2020,08,16,05,48,15.20
2020,08,16,05,49,15.20
2020,08,16,05,50,15.20
2020,08,16,05,51,15.10
2020,08,16,05,52,15.10
2020,08,16,05,53,15.10
2020,08,16,05,54,15.10
2020,08,16,05,55,15.10
2020,08,16,05,56,15.10
2020,08,16,05,57,15.10
2020,08,16,05,58,15.10
2020,08,16,05,59,15.10
2020,08,16,06,00,15.10
2020,08,16,06,01,15.10
2020,08,16,06,02,15.10
2020,08,16,06,03,15.20
2020,08,16,06,04,15.20
2020,08,16,06,05,15.20
2020,08,16,06,06,15.10
2020,08,16,06,07,15.10
2020,08,16,06,08,15.10
2020,08,16,06,09,15.10
2020,08,16,06,10,15.10
2020,08,16,06,11,15.10
2020,08,16,06,12,15.10
2020,08,16,06,13,15.10
2020,08,16,06,14,15.10
2020,08,16,06,15,15.10
2020,08,16,06,16,15.10
2020,08,16,06,17,15.10
2020,08,16,06,18,15.10
2020,08,16,06,19,15.10
2020,08,16,06,20,15.10
2020,08,16,06,21,15.10
2020,08,16,06,22,15.10
2020,08,16,06,23,15.10
2020,08,16,06,24,15.10
2020,08,16,06,25,15.20
2020,08,16,06,26,15.20
2020,08,16,06,27,15.20
2020,08,16,06,28,15.20
2020,08,16,06,29,15.20
2020,08,16,06,30,15.20
2020,08,16,06,31,15.10
2020,08,16,06,32,15.10
2020,08,16,06,33,15.10
2020,08,16,06,34,15.10
2020,08,16,06,35,15.00
2020,08,16,06,36,15.00
2020,08,16,06,37,15.00
2020,08,16,06,38,15.00
2020,08,16,06,39,15.00
2020,08,16,06,40,15.00
2020,08,16,06,41,15.00
2020,08,16,06,42,15.10
2020,08,16,06,43,15.10
2020,08,16,06,44,15.10
2020,08,16,06,45,15.10
2020,08,16,06,46,15.20
2020,08,16,06,47,15.20
2020,08,16,06,48,15.20
2020,08,16,06,49,15.30
2020,08,16,06,50,15.30
2020,08,16,06,51,15.30
2020,08,16,06,52,15.30
2020,08,16,06,53,15.30
2020,08,16,06,54,15.40
2020,08,16,06,55,15.40
2020,08,16,06,56,15.40
2020,08,16,06,57,15.40
2020,08,16,06,58,15.40
2020,08,16,06,59,15.40
2020,08,16,07,00,15.40
2020,08,16,07,01,15.40
2020,08,16,07,02,15.50
2020,08,16,07,03,15.50
2020,08,16,07,04,15.50
2020,08,16,07,05,15.50
2020,08,16,07,06,15.60
2020,08,16,07,07,15.60
2020,08,16,07,08,15.60
2020,08,16,07,09,15.60
2020,08,16,07,10,15.60
2020,08,16,07,11,15.70
2020,08,16,07,12,15.70
2020,08,16,07,13,15.80
2020,08,16,07,14,15.80
2020,08,16,07,15,15.80
2020,08,16,07,16,15.90
2020,08,16,07,17,16.00
2020,08,16,07,18,16.10
2020,08,16,07,19,16.10
2020,08,16,07,20,16.10
2020,08,16,07,21,16.10
2020,08,16,07,22,16.10
2020,08,16,07,23,16.10
2020,08,16,07,24,16.10
2020,08,16,07,25,16.10
2020,08,16,07,26,16.20
2020,08,16,07,27,16.20
2020,08,16,07,28,16.20
2020,08,16,07,29,16.20
2020,08,16,07,30,16.30
2020,08,16,07,31,16.30
2020,08,16,07,32,16.40
2020,08,16,07,33,16.50
2020,08,16,07,34,16.60
2020,08,16,07,35,16.70
2020,08,16,07,36,16.70
2020,08,16,07,37,16.80
2020,08,16,07,38,16.80
2020,08,16,07,39,16.90
2020,08,16,07,40,17.00
2020,08,16,07,41,17.10
2020,08,16,07,42,17.20
2020,08,16,07,43,17.30
2020,08,16,07,44,17.40
2020,08,16,07,45,17.50
2020,08,16,07,46,17.50
2020,08,16,07,47,17.60
2020,08,16,07,48,17.60
2020,08,16,07,49,17.70
2020,08,16,07,50,17.80
2020,08,16,07,51,17.90
2020,08,16,07,52,17.90
2020,08,16,07,53,18.00
2020,08,16,07,54,18.20
2020,08,16,07,55,18.30
2020,08,16,07,56,18.40
2020,08,16,07,57,18.50
2020,08,16,07,58,18.50
2020,08,16,07,59,18.60
2020,08,16,08,00,18.60
2020,08,16,08,01,18.80
2020,08,16,08,02,18.90
2020,08,16,08,03,19.00
2020,08,16,08,04,19.10
2020,08,16,08,05,19.10
2020,08,16,08,06,19.20
2020,08,16,08,07,19.20
2020,08,16,08,08,19.30
2020,08,16,08,09,19.30
2020,08,16,08,10,19.30
2020,08,16,08,11,19.40
2020,08,16,08,12,19.50
2020,08,16,08,13,19.50
2020,08,16,08,14,19.60
2020,08,16,08,15,19.70
2020,08,16,08,16,19.80
2020,08,16,08,17,19.90
2020,08,16,08,18,19.90
2020,08,16,08,19,20.10
2020,08,16,08,20,20.20
2020,08,16,08,21,20.30
2020,08,16,08,22,20.40
2020,08,16,08,23,20.50
2020,08,16,08,24,20.70
2020,08,16,08,25,20.80
2020,08,16,08,26,21.00
2020,08,16,08,27,21.00
2020,08,16,08,28,21.10
2020,08,16,08,29,21.30
2020,08,16,08,30,21.30
2020,08,16,08,31,21.40
2020,08,16,08,32,21.60
2020,08,16,08,33,21.60
2020,08,16,08,34,21.70
2020,08,16,08,35,21.70
2020,08,16,08,36,21.80
2020,08,16,08,37,21.90
2020,08,16,08,38,21.90
2020,08,16,08,39,22.00
2020,08,16,08,40,22.00
2020,08,16,08,41,22.10
2020,08,16,08,42,22.10
2020,08,16,08,43,22.10
2020,08,16,08,44,22.20
2020,08,16,08,45,22.20
2020,08,16,08,46,22.30
2020,08,16,08,47,22.30
2020,08,16,08,48,22.40
2020,08,16,08,49,22.40
2020,08,16,08,50,22.50
2020,08,16,08,51,22.50
2020,08,16,08,52,22.60
2020,08,16,08,53,22.60
2020,08,16,08,54,22.70
2020,08,16,08,55,22.70
2020,08,16,08,56,22.80
2020,08,16,08,57,22.80
2020,08,16,08,58,22.80
2020,08,16,08,59,22.80
2020,08,16,09,00,22.80
2020,08,16,09,01,22.80
2020,08,16,09,02,22.90
2020,08,16,09,03,22.90
2020,08,16,09,04,22.90
2020,08,16,09,05,22.90
2020,08,16,09,06,22.90
2020,08,16,09,07,22.90
2020,08,16,09,08,22.90
2020,08,16,09,09,22.90
2020,08,16,09,10,22.90
2020,08,16,09,11,22.90
2020,08,16,09,12,23.00
2020,08,16,09,13,23.10
2020,08,16,09,14,23.10
2020,08,16,09,15,23.10
2020,08,16,09,16,23.10
2020,08,16,09,17,23.10
2020,08,16,09,18,23.10
2020,08,16,09,19,23.10
2020,08,16,09,20,23.10
2020,08,16,09,21,23.10
2020,08,16,09,22,23.10
2020,08,16,09,23,23.20
2020,08,16,09,24,23.30
2020,08,16,09,25,23.30
2020,08,16,09,26,23.30
2020,08,16,09,27,23.30
2020,08,16,09,28,23.30
2020,08,16,09,29,23.30
2020,08,16,09,30,23.30
2020,08,16,09,31,23.30
2020,08,16,09,32,23.30
2020,08,16,09,33,23.40
2020,08,16,09,34,23.40
2020,08,16,09,35,23.40
2020,08,16,09,36,23.40
2020,08,16,09,37,23.50
2020,08,16,09,38,23.60
2020,08,16,09,39,23.60
2020,08,16,09,40,23.70
2020,08,16,09,41,23.70
2020,08,16,09,42,23.70
2020,08,16,09,43,23.70
2020,08,16,09,44,23.80
2020,08,16,09,45,23.80
2020,08,16,09,46,23.90
2020,08,16,09,47,24.00
2020,08,16,09,48,24.10
2020,08,16,09,49,24.10
2020,08,16,09,50,24.20
2020,08,16,09,51,24.20
2020,08,16,09,52,24.20
2020,08,16,09,53,24.30
2020,08,16,09,54,24.30
2020,08,16,09,55,24.30
2020,08,16,09,56,24.30
2020,08,16,09,57,24.30
2020,08,16,09,58,24.30
2020,08,16,09,59,24.40
2020,08,16,10,00,24.40
2020,08,16,10,01,24.40
2020,08,16,10,02,24.40
2020,08,16,10,03,24.40
2020,08,16,10,04,24.50
2020,08,16,10,05,24.50
2020,08,16,10,06,24.50
2020,08,16,10,07,24.50
2020,08,16,10,08,24.50
2020,08,16,10,09,24.40
2020,08,16,10,10,24.30
2020,08,16,10,11,24.30
2020,08,16,10,12,24.30
2020,08,16,10,13,24.30
2020,08,16,10,14,24.30
2020,08,16,10,15,24.30
2020,08,16,10,16,24.30
2020,08,16,10,17,24.40
2020,08,16,10,18,24.40
2020,08,16,10,19,24.40
2020,08,16,10,20,24.40
2020,08,16,10,21,24.40
2020,08,16,10,22,24.40
2020,08,16,10,23,24.50
2020,08,16,10,24,24.50
2020,08,16,10,25,24.60
2020,08,16,10,26,24.70
2020,08,16,10,27,24.70
2020,08,16,10,28,24.80
2020,08,16,10,29,24.80
2020,08,16,10,30,24.90
2020,08,16,10,31,24.90
2020,08,16,10,32,24.90
2020,08,16,10,33,24.90
2020,08,16,10,34,24.90
2020,08,16,10,35,25.00
2020,08,16,10,36,25.00
2020,08,16,10,37,25.00
2020,08,16,10,38,25.00
2020,08,16,10,39,25.10
2020,08,16,10,40,25.10
2020,08,16,10,41,25.10
2020,08,16,10,42,25.10
2020,08,16,10,43,25.10
2020,08,16,10,44,25.10
2020,08,16,10,45,25.10
2020,08,16,10,46,25.20
2020,08,16,10,47,25.30
2020,08,16,10,48,25.40
2020,08,16,10,49,25.40
2020,08,16,10,50,25.50
2020,08,16,10,51,25.40
2020,08,16,10,52,25.40
2020,08,16,10,53,25.30
2020,08,16,10,54,25.30
2020,08,16,10,55,25.40
2020,08,16,10,56,25.50
2020,08,16,10,57,25.60
2020,08,16,10,58,25.60
2020,08,16,10,59,25.60
2020,08,16,11,00,25.60
2020,08,16,11,01,25.70
2020,08,16,11,02,25.80
2020,08,16,11,03,25.90
2020,08,16,11,04,26.00
2020,08,16,11,05,26.10
2020,08,16,11,06,26.20
2020,08,16,11,07,26.40
2020,08,16,11,08,26.40
2020,08,16,11,09,26.60
2020,08,16,11,10,26.60
2020,08,16,11,11,26.60
2020,08,16,11,12,26.60
2020,08,16,11,13,26.60
2020,08,16,11,14,26.60
2020,08,16,11,15,26.60
2020,08,16,11,16,26.60
2020,08,16,11,17,26.60
2020,08,16,11,18,26.60
2020,08,16,11,19,26.60
2020,08,16,11,20,26.60
2020,08,16,11,21,26.60
2020,08,16,11,22,26.50
2020,08,16,11,23,26.40
2020,08,16,11,24,26.40
2020,08,16,11,25,26.40
2020,08,16,11,26,26.40
2020,08,16,11,27,26.50
2020,08,16,11,28,26.60
2020,08,16,11,29,26.60
2020,08,16,11,30,26.70
2020,08,16,11,31,26.70
2020,08,16,11,32,26.80
2020,08,16,11,33,26.80
2020,08,16,11,34,26.90
2020,08,16,11,35,26.90
2020,08,16,11,36,26.90
2020,08,16,11,37,26.90
2020,08,16,11,38,26.90
2020,08,16,11,39,26.90
2020,08,16,11,40,26.90
2020,08,16,11,41,26.90
2020,08,16,11,42,26.90
2020,08,16,11,43,27.00
2020,08,16,11,44,27.10
2020,08,16,11,45,27.10
2020,08,16,11,46,27.20
2020,08,16,11,47,27.30
2020,08,16,11,48,27.40
2020,08,16,11,49,27.40
2020,08,16,11,50,27.40
2020,08,16,11,51,27.50
2020,08,16,11,52,27.60
2020,08,16,11,53,27.70
2020,08,16,11,54,27.80
2020,08,16,11,55,27.90
2020,08,16,11,56,28.00
2020,08,16,11,57,28.00
2020,08,16,11,58,28.00
2020,08,16,11,59,28.00
2020,08,16,12,00,27.90
2020,08,16,12,01,27.90
2020,08,16,12,02,27.90
2020,08,16,12,03,27.90
2020,08,16,12,04,27.90
2020,08,16,12,05,27.90
2020,08,16,12,06,27.90
2020,08,16,12,07,27.90
2020,08,16,12,08,28.00
2020,08,16,12,09,28.00
2020,08,16,12,10,28.00
2020,08,16,12,11,28.00
2020,08,16,12,12,28.10
2020,08,16,12,13,28.00
2020,08,16,12,14,28.00
2020,08,16,12,15,28.00
2020,08,16,12,16,28.00
2020,08,16,12,17,28.10
2020,08,16,12,18,28.10
2020,08,16,12,19,28.10
2020,08,16,12,20,28.00
2020,08,16,12,21,28.00
2020,08,16,12,22,28.00
2020,08,16,12,23,27.90
2020,08,16,12,24,27.90
2020,08,16,12,25,28.00
2020,08,16,12,26,28.00
2020,08,16,12,27,27.90
2020,08,16,12,28,27.90
2020,08,16,12,29,27.90
2020,08,16,12,30,28.00
2020,08,16,12,31,28.10
2020,08,16,12,32,28.00
2020,08,16,12,33,28.00
2020,08,16,12,34,28.00
2020,08,16,12,35,28.00
2020,08,16,12,36,28.00
2020,08,16,12,37,28.10
2020,08,16,12,38,28.20
2020,08,16,12,39,28.20
2020,08,16,12,40,28.30
2020,08,16,12,41,28.30
2020,08,16,12,42,28.40
2020,08,16,12,43,28.40
2020,08,16,12,44,28.60
2020,08,16,12,45,28.50
2020,08,16,12,46,28.40
2020,08,16,12,47,28.40
2020,08,16,12,48,28.50
2020,08,16,12,49,28.60
2020,08,16,12,50,28.60
2020,08,16,12,51,28.60
2020,08,16,12,52,28.60
2020,08,16,12,53,28.40
2020,08,16,12,54,28.20
2020,08,16,12,55,28.00
2020,08,16,12,56,27.80
2020,08,16,12,57,27.70
2020,08,16,12,58,27.50
2020,08,16,12,59,27.30
2020,08,16,13,00,27.00
2020,08,16,13,01,26.70
2020,08,16,13,02,26.50
2020,08,16,13,03,26.30
2020,08,16,13,04,26.10
2020,08,16,13,05,25.90
2020,08,16,13,06,25.70
2020,08,16,13,07,25.40
2020,08,16,13,08,25.30
2020,08,16,13,09,25.20
2020,08,16,13,10,25.30
2020,08,16,13,11,25.30
2020,08,16,13,12,25.40
2020,08,16,13,13,25.50
2020,08,16,13,14,25.70
2020,08,16,13,15,25.70
2020,08,16,13,16,25.70
2020,08,16,13,17,25.70
2020,08,16,13,18,25.70
2020,08,16,13,19,25.80
2020,08,16,13,20,25.90
2020,08,16,13,21,26.00
2020,08,16,13,22,26.20
2020,08,16,13,23,26.30
2020,08,16,13,24,26.50
2020,08,16,13,25,26.70
2020,08,16,13,26,27.20
2020,08,16,13,27,27.40
2020,08,16,13,28,27.70
2020,08,16,13,29,27.80
2020,08,16,13,30,27.80
2020,08,16,13,31,27.70
2020,08,16,13,32,27.70
2020,08,16,13,33,27.80
2020,08,16,13,34,28.00
2020,08,16,13,35,28.20
2020,08,16,13,36,28.50
2020,08,16,13,37,28.60
2020,08,16,13,38,28.80
2020,08,16,13,39,28.90
2020,08,16,13,40,29.00
2020,08,16,13,41,29.10
2020,08,16,13,42,29.10
2020,08,16,13,43,29.00
2020,08,16,13,44,28.80
2020,08,16,13,45,28.50
2020,08,16,13,46,28.20
2020,08,16,13,47,27.90
2020,08,16,13,48,27.60
2020,08,16,13,49,27.30
2020,08,16,13,50,26.90
2020,08,16,13,51,26.60
2020,08,16,13,52,26.20
2020,08,16,13,53,25.90
2020,08,16,13,54,25.70
2020,08,16,13,55,25.40
2020,08,16,13,56,25.20
2020,08,16,13,57,25.20
2020,08,16,13,58,25.30
2020,08,16,13,59,25.40
2020,08,16,14,00,25.50
2020,08,16,14,01,25.70
2020,08,16,14,02,25.70
2020,08,16,14,03,25.70
2020,08,16,14,04,25.30
2020,08,16,14,05,24.70
2020,08,16,14,06,24.20
2020,08,16,14,07,23.80
2020,08,16,14,08,23.70
2020,08,16,14,09,23.60
2020,08,16,14,10,23.60
2020,08,16,14,11,23.70
2020,08,16,14,12,23.90
2020,08,16,14,13,23.50
2020,08,16,14,14,23.10
2020,08,16,14,15,22.90
2020,08,16,14,16,22.80
2020,08,16,14,17,22.80
2020,08,16,14,18,22.70
2020,08,16,14,19,22.40
2020,08,16,14,20,22.10
2020,08,16,14,21,21.90
2020,08,16,14,22,21.80
2020,08,16,14,23,21.80
2020,08,16,14,24,21.90
2020,08,16,14,25,21.90
2020,08,16,14,26,22.00
2020,08,16,14,27,22.10
2020,08,16,14,28,22.20
2020,08,16,14,29,22.40
2020,08,16,14,30,22.50
2020,08,16,14,31,22.40
2020,08,16,14,32,22.30
2020,08,16,14,33,22.20
2020,08,16,14,34,22.00
2020,08,16,14,35,21.90
2020,08,16,14,36,21.80
2020,08,16,14,37,21.50
2020,08,16,14,38,21.20
2020,08,16,14,39,20.90
2020,08,16,14,40,20.50
2020,08,16,14,41,20.30
2020,08,16,14,42,20.20
2020,08,16,14,43,20.20
2020,08,16,14,44,20.20
2020,08,16,14,45,20.20
2020,08,16,14,46,20.20
2020,08,16,14,47,20.10
2020,08,16,14,48,20.00
2020,08,16,14,49,19.90
2020,08,16,14,50,19.90
2020,08,16,14,51,19.90
2020,08,16,14,52,19.80
2020,08,16,14,53,19.80
2020,08,16,14,54,19.90
2020,08,16,14,55,19.90
2020,08,16,14,56,19.90
2020,08,16,14,57,19.90
2020,08,16,14,58,19.90
2020,08,16,14,59,20.00
2020,08,16,15,00,20.10
2020,08,16,15,01,20.20
2020,08,16,15,02,20.20
2020,08,16,15,03,20.20
2020,08,16,15,04,20.00
2020,08,16,15,05,19.90
2020,08,16,15,06,19.90
2020,08,16,15,07,19.90
2020,08,16,15,08,19.90
2020,08,16,15,09,19.90
2020,08,16,15,10,19.90
2020,08,16,15,11,20.00
2020,08,16,15,12,20.10
2020,08,16,15,13,20.20
2020,08,16,15,14,20.20
2020,08,16,15,15,20.20
2020,08,16,15,16,20.20
2020,08,16,15,17,20.20
2020,08,16,15,18,20.20
2020,08,16,15,19,20.20
2020,08,16,15,20,20.20
2020,08,16,15,21,20.20
2020,08,16,15,22,20.20
2020,08,16,15,23,20.20
2020,08,16,15,24,20.20
2020,08,16,15,25,20.20
2020,08,16,15,26,20.30
2020,08,16,15,27,20.30
2020,08,16,15,28,20.40
2020,08,16,15,29,20.50
2020,08,16,15,30,20.60
2020,08,16,15,31,20.60
2020,08,16,15,32,20.70
2020,08,16,15,33,20.80
2020,08,16,15,34,20.80
2020,08,16,15,35,20.90
2020,08,16,15,36,21.00
2020,08,16,15,37,21.10
2020,08,16,15,38,21.20
2020,08,16,15,39,21.30
2020,08,16,15,40,21.30
2020,08,16,15,41,21.30
2020,08,16,15,42,21.50
2020,08,16,15,43,21.60
2020,08,16,15,44,21.60
2020,08,16,15,45,21.60
2020,08,16,15,46,21.60
2020,08,16,15,47,21.60
2020,08,16,15,48,21.60
2020,08,16,15,49,21.60
2020,08,16,15,50,21.60
2020,08,16,15,51,21.60
2020,08,16,15,52,21.50
2020,08,16,15,53,21.40
2020,08,16,15,54,21.40
2020,08,16,15,55,21.40
2020,08,16,15,56,21.40
2020,08,16,15,57,21.40
2020,08,16,15,58,21.60
2020,08,16,15,59,21.60
2020,08,16,16,00,21.60
2020,08,16,16,01,21.60
2020,08,16,16,02,21.60
2020,08,16,16,03,21.70
2020,08,16,16,04,21.80
2020,08,16,16,05,21.90
2020,08,16,16,06,21.90
2020,08,16,16,07,22.00
2020,08,16,16,08,22.10
2020,08,16,16,09,22.20
2020,08,16,16,10,22.40
2020,08,16,16,11,22.40
2020,08,16,16,12,22.50
2020,08,16,16,13,22.50
2020,08,16,16,14,22.40
2020,08,16,16,15,22.40
2020,08,16,16,16,22.40
2020,08,16,16,17,22.30
2020,08,16,16,18,22.30
2020,08,16,16,19,22.30
2020,08,16,16,20,22.30
2020,08,16,16,21,22.30
2020,08,16,16,22,22.30
2020,08,16,16,23,22.30
2020,08,16,16,24,22.40
2020,08,16,16,25,22.40
2020,08,16,16,26,22.40
2020,08,16,16,27,22.30
2020,08,16,16,28,22.30
2020,08,16,16,29,22.30
2020,08,16,16,30,22.30
2020,08,16,16,31,22.30
2020,08,16,16,32,22.30
2020,08,16,16,33,22.30
2020,08,16,16,34,22.30
2020,08,16,16,35,22.40
2020,08,16,16,36,22.40
2020,08,16,16,37,22.40
2020,08,16,16,38,22.40
2020,08,16,16,39,22.40
2020,08,16,16,40,22.40
2020,08,16,16,41,22.40
2020,08,16,16,42,22.50
2020,08,16,16,43,22.50
2020,08,16,16,44,22.60
2020,08,16,16,45,22.70
2020,08,16,16,46,22.80
2020,08,16,16,47,22.80
2020,08,16,16,48,22.90
2020,08,16,16,49,22.80
2020,08,16,16,50,22.70
2020,08,16,16,51,22.70
2020,08,16,16,52,22.70
2020,08,16,16,53,22.60
2020,08,16,16,54,22.60
2020,08,16,16,55,22.60
2020,08,16,16,56,22.70
2020,08,16,16,57,22.70
2020,08,16,16,58,22.70
2020,08,16,16,59,22.70
2020,08,16,17,00,22.70
2020,08,16,17,01,22.70
2020,08,16,17,02,22.70
2020,08,16,17,03,22.80
2020,08,16,17,04,22.80
2020,08,16,17,05,22.90
2020,08,16,17,06,22.90
2020,08,16,17,07,22.90
2020,08,16,17,08,22.90
2020,08,16,17,09,22.90
2020,08,16,17,10,22.80
2020,08,16,17,11,22.70
2020,08,16,17,12,22.60
2020,08,16,17,13,22.50
2020,08,16,17,14,22.50
2020,08,16,17,15,22.50
2020,08,16,17,16,22.40
2020,08,16,17,17,22.40
2020,08,16,17,18,22.30
2020,08,16,17,19,22.30